Regional Weather Roundup
Issued by NWS Sterling, VA

Home | Current Version | Previous Version | Graphics & Text | Print | Product List | Glossary On
Versions: 1 2 3 4 5 6 7 8 9 10 11 12 13 14 15 16 17 18 19 20 21 22 23 24 25 26 27 28 29 30 31 32 33 34 35 36 37 38 39 40 41 42 43 44 45 46 47 48 49 50
000
ASUS41 KLWX 041510
RWRLWX

REGIONAL WEATHER ROUNDUP
NATIONAL WEATHER SERVICE BALTIMORE MD/WASHINGTON DC
1100 AM EDT SAT JUL 04 2015

Note: "FAIR" indicates few or no clouds below 12,000 feet
with no significant weather and/or obstructions to visibility.
 TC=TEMPERATURE CELSIUS

 * =Non NWS site. Station does not report precipitation (e.g. rain,
    snow, etc.), thunder, or fog.

DCZ001-MDZ009-015-VAZ040>042-051-053>054-041600-
WASHINGTON METRO

CITY           SKY/WX    TMP DP  RH WIND       PRES   REMARKS
WASHINGTON NAT CLOUDY    74  69  85 CALM      29.92F
DULLES         CLOUDY    72  69  90 VRB6      29.91F
ANDREWS AFB    PTSUNNY   70  70 100 E2        29.91F
FT BELVOIR     PTSUNNY   73  70  88 CALM      29.91F
QUANTICO       CLOUDY    75  69  81 SE3       29.92S
LEESBURG*      CLOUDY    72  72 100 CALM      29.93S
MANASSAS*      CLOUDY    73  72  94 CALM        N/A
GAITHERSBURG*  CLOUDY    70  66  88 SE5       29.96S

$$

MDZ006>007-011-014-041600-
BALTIMORE METRO

CITY           SKY/WX    TMP DP  RH WIND       PRES   REMARKS
BWI AIRPORT    LGT RAIN  68  65  90 SW3       29.92R FOG
MD SCIENCE CTR   N/A     72  69  90 MISG      29.92S
MARTIN STATE   LGT RAIN  73  72  94 CALM      29.93R FOG
ANNAPOLIS      RAIN      73  69  87 NW3       29.91S FOG
FORT MEADE*    CLOUDY    66  63  88 CALM      29.95R VSB 1

$$

MDZ012-015-019>023-041600-
MARYLAND EASTERN SHORE

CITY           SKY/WX    TMP DP  RH WIND       PRES   REMARKS
OCEAN CITY     NOT AVBL
SALISBURY      LGT RAIN  76  72  87 N3        29.89R
BAY BRIDGE AP* LGT RAIN  73  68  83 NW5       29.91R
EASTON*        CLOUDY    81  72  74 SE3       29.94R

$$

MDZ017>025-041600-
SOUTHERN MARYLAND

CITY           SKY/WX    TMP DP  RH WIND       PRES   REMARKS
PATUXENT RIVER PTSUNNY   77  68  73 NW7       29.89S
ST INIGOES     PTSUNNY   80  71  74 VRB5      29.89S
LEONARDTOWN*   CLOUDY    77  68  73 W3        29.91S

$$

MDZ003>005-041600-
NORTH CENTRAL MARYLAND

CITY           SKY/WX    TMP DP  RH WIND       PRES   REMARKS
FREDERICK*     LGT RAIN  70  70 100 NE3       29.95S FOG
HAGERSTOWN APT CLOUDY    69  66  90 CALM      29.92R FOG
WESTMINSTER*   PTSUNNY   70  66  88 S3        29.94R

$$

MDZ501>502-041600-
WESTERN MARYLAND

CITY           SKY/WX    TMP DP  RH WIND       PRES   REMARKS
OAKLAND*       FOG       61 N/A N/A W6        30.00R VSB 1
CUMBERLAND*    CLOUDY    70  68  94 CALM      29.95S

$$

VAZ025>031-041600-
SHENANDOAH VALLEY

CITY           SKY/WX    TMP DP  RH WIND       PRES   REMARKS
WINCHESTER*    PTSUNNY   75  68  78 CALM      29.92S
FRONT ROYAL*   PTSUNNY   73  68  83 SW6       29.90F
LURAY*         FAIR      75  70  83 SW7       29.93R
NEW MARKET*    PTSUNNY   73  68  82 SW6       29.91S
STAUNTON*      PTSUNNY   79  69  71 S7        29.95F
WAYNESBORO*    PTSUNNY   74  67  81 SW5       29.95F

$$

WVZ021-048>050-054>055-041600-
EASTERN WEST VIRGINIA PANHANDLE

CITY           SKY/WX    TMP DP  RH WIND       PRES   REMARKS
MARTINSBURG    CLOUDY    72  67  84 S5        29.91F
PETERSBURG*    LGT RAIN  72  66  82 CALM      29.94R

$$

VAZ036>039-050-041600-
CENTRAL FOOTHILLS

CITY           SKY/WX    TMP DP  RH WIND       PRES   REMARKS
CHARLOTTESVILL MOSUNNY   76  68  76 VRB5      29.91F HAZE
CULPEPER*      CLOUDY    74  68  83 CALM      29.92S
ORANGE*        PTSUNNY   77  70  78 SW6       29.93S
GORDONSVILLE*  CLOUDY    75  70  83 S7        29.92S
WARRENTON*     CLOUDY    76  72  87 SW3       29.91S

$$

VAZ055>057-041600-
NORTH AND CENTRAL PIEDMONT

CITY           SKY/WX    TMP DP  RH WIND       PRES   REMARKS
FREDERICKSBRG* CLOUDY    77  72  85 CALM      29.91R
STAFFORD*      CLOUDY    75  68  79 S3        29.95S

$$

NCZ024-NYZ072-PAZ021-071-VAZ022-071-041600-
OTHER REGIONAL OBSERVATIONS

CITY           SKY/WX    TMP DP  RH WIND       PRES   REMARKS
NEW YORK CITY  CLOUDY    72  58  61 VRB5      29.99R
PHILADELPHIA   CLOUDY    77  63  61 NE9G16    29.92S
PITTSBURGH     CLOUDY    71  64  78 NW9       29.95R
ROANOKE        PTSUNNY   76  68  76 SW9       29.98S
RICHMOND       PTSUNNY   78  70  76 SW9       29.92R
RALEIGH        PTSUNNY   81  70  69 W10G18    29.97S

$$

ANZ530>537-041600-
MARINE OBSERVATIONS

STATION/POSITION TIME  TEMP    WIND        PRES
                       AIR SEA DIR/SP/G
                 (UTC) (F)     (DEG/KT/KT) (MB)
THOMAS PT LIGHT  NOT AVBL
BALT KEY BRIDGE  1400   73     350/  3/  3 1012.8R
COVE POINT       1400   73     360/  5/  7 1012.9R
LEWISETTA        1400   76 79  360/  4/  6 1011.9R
SOLOMONS ISLAND  1400      79                N/A
PINEY POINT      1412          330/  6/  7   N/A

$$




USA.gov is the U.S. government's official web portal to all federal, state and local government web resources and services.